sat.trackr.live / text

‹ back to catalog

STARLINK-34442

NORAD 64672 · 2025-139J

PAYLOAD ACTIVE UNKNOWN

§ Identity

Operator
Country
US
Launch date
2025-06-28
Launch site
AFETR
Launch vehicle
Mass (kg)
RCS (m²)

Purposes: comms

External: N2YO · Heavens-Above · Gunter

§ Orbital elements

Epoch: 2026-09-20T08:45:26.872704Z

Period
93.85 min
Inclination
53.1593°
Eccentricity
0.0001666
Mean motion
15.34413094 rev/d
Perigee alt
461.5 km
Apogee alt
463.8 km
Semi-major
6,840.8 km
B*
7.9068e-4
RAAN
298.2646°
Arg perigee
83.8041°
Mean anomaly
276.3151°
Rev number
7,015

§ Raw data

STARLINK-344421 64672U 25139J   26263.36489436  .00026444  00000+0  79068-3 0  99992 64672  53.1593 298.2646 0001666  83.8041 276.3151 15.34413094 70155

JSON: /api/v1/satellites/64672 · /tle

For live sub-satellite position, see the globe view (requires WebGL).

§ Visibility from observer

Set your observer location to see the next 7 days of passes ≥ 10°. The values pass through the URL so the page stays shareable.

No JS? Fill the form by hand. The geolocation button needs JavaScript.